Location: Krasnoyarskiy Pitomnik
(51.1333°N, 71.6167°E)
Time: 21:53:06
(UTC+00:00)

A-11 Canister half - Pass Details

Date: 26 April 2024
Orbit: 1525 x 1683 km, 47.3° (Epoch: 19 May)

Event Time Altitude Azimuth Distance (km) Brightness Sun altitude
Rises 00:29:53 0° 237° (WSW) 4,847 11.0 4.2°
Reaches altitude 10° 00:33:02 10° 234° (SW) 3,881 10.6 4.7°
Maximum altitude 00:42:44 59° 158° (SSE) 1,883 9.7 6.2°
Drops below altitude 10° 00:52:37 10° 83° (E) 3,950 14.2 7.7°
Sets 00:55:50 0° 80° (E) 4,939 14.3 8.2°
